Station 41068 - Fort Pierce, FL (FTP) 
Previous observations
TIME (EDT) |
 WDIR |
 WSPD kts |
 GST kts |
 WVHT ft |
 DPD sec |
 APD sec |
 MWD |
 PRES in |
 PTDY in |
 ATMP °F |
 WTMP °F |
 DEWP °F |
 SAL psu |
 VIS nmi |
 TIDE ft |
| 2026-05-09 01:08 am | SSE | 13.6 | 19.4 | - | - | - | - | 29.93 | - | 79.2 | 79.5 | 74.7 | 36.35 | - | - |
| 2026-05-09 12:08 am | SSE | 11.7 | 17.5 | - | - | - | - | 29.93 | - | 79.5 | 79.7 | 74.1 | 36.34 | - | - |
| 2026-05-08 11:08 pm | SSE | 9.7 | 15.5 | - | - | - | - | 29.94 | - | 79.5 | 79.7 | 74.1 | 36.34 | - | - |
| 2026-05-08 10:08 pm | SE | 9.7 | 15.5 | - | - | - | - | 29.93 | - | 79.5 | 79.7 | 74.3 | 36.34 | - | - |
| 2026-05-08 09:08 pm | SE | 9.7 | 13.6 | - | - | - | - | 29.93 | - | 79.5 | 79.7 | 73.9 | 36.33 | - | - |
| 2026-05-08 08:08 pm | ESE | 9.7 | 13.6 | - | - | - | - | 29.91 | - | 79.5 | 79.7 | 74.1 | 36.33 | - | - |
| 2026-05-08 07:08 pm | ESE | 9.7 | 15.5 | - | - | - | - | 29.89 | - | 79.3 | 79.7 | 74.1 | 36.33 | - | - |
| 2026-05-08 06:08 pm | ESE | 9.7 | 15.5 | - | - | - | - | 29.89 | - | 79.0 | 79.7 | 73.6 | 36.34 | - | - |
| 2026-05-08 05:08 pm | E | 9.7 | 13.6 | - | - | - | - | 29.90 | - | 78.8 | 79.9 | 73.4 | 36.34 | - | - |
| 2026-05-08 04:08 pm | E | 9.7 | 13.6 | - | - | - | - | 29.92 | - | 78.4 | 80.1 | 73.6 | 36.35 | - | - |
| 2026-05-08 03:08 pm | ENE | 9.7 | 11.7 | - | - | - | - | 29.95 | - | 78.3 | 79.9 | 72.7 | 36.36 | - | - |
| 2026-05-08 02:08 pm | NE | 9.7 | 11.7 | - | - | - | - | 29.96 | - | 77.7 | 80.1 | 72.3 | 36.35 | - | - |
| 2026-05-08 01:08 pm | NE | 5.8 | 9.7 | - | - | - | - | 29.98 | - | 77.5 | 79.7 | 72.3 | 36.35 | - | - |
| 2026-05-08 12:08 pm | N | 3.9 | 7.8 | - | - | - | - | 30.00 | - | 77.5 | 79.3 | 71.8 | 36.35 | - | - |
| 2026-05-08 11:08 am | NNW | 3.9 | 7.8 | - | - | - | - | 30.01 | - | 77.4 | 79.0 | 71.1 | 36.34 | - | - |
| 2026-05-08 10:08 am | WNW | 5.8 | 9.7 | - | - | - | - | 30.00 | - | 76.3 | 78.8 | 70.9 | 36.34 | - | - |
| 2026-05-08 09:08 am | WNW | 5.8 | 9.7 | - | - | - | - | 29.99 | - | 75.9 | 78.6 | 70.5 | 36.34 | - | - |
| 2026-05-08 05:08 am | WNW | 7.8 | 9.7 | - | - | - | - | 29.91 | - | 76.3 | 78.6 | 69.4 | 35.99 | - | - |
| 2026-05-08 04:08 am | W | 7.8 | 11.7 | - | - | - | - | 29.91 | - | 77.4 | 78.6 | 69.3 | 35.98 | - | - |
| 2026-05-08 03:08 am | WSW | 7.8 | 11.7 | - | - | - | - | 29.91 | - | 78.1 | 78.6 | 68.7 | 35.98 | - | - |
|
These oceanographic data are displayed in rounded times.
Click on the graph icon in the table below to see a time series plot of the last five days of that observation. |
| Depth (DEPTH): | 0.0 ft |
Ocean Temperature (OTMP): | 79.50 °F |
Salinity (SAL): | 36.35 psu |
Previous observations
TIME (EDT) |
DEPTH ft |
 OTMP °F |
 COND mS/cm |
 SAL psu |
 O2% % |
 O2PPM ppm |
 CLCON ug/l |
 TURB FTU |
 PH |
 EH mV |
| 2026-05-09 01:08 am | 0.0 | 79.59 | - | 36.35 | - | - | - | - | - | - |
| 2026-05-09 12:08 am | 0.0 | 79.65 | - | 36.34 | - | - | - | - | - | - |
| 2026-05-08 11:08 pm | 0.0 | 79.66 | - | 36.34 | - | - | - | - | - | - |
| 2026-05-08 10:08 pm | 0.0 | 79.70 | - | 36.34 | - | - | - | - | - | - |
| 2026-05-08 09:08 pm | 0.0 | 79.77 | - | 36.33 | - | - | - | - | - | - |
| 2026-05-08 08:08 pm | 0.0 | 79.75 | - | 36.33 | - | - | - | - | - | - |
| 2026-05-08 07:08 pm | 0.0 | 79.65 | - | 36.33 | - | - | - | - | - | - |
| 2026-05-08 06:08 pm | 0.0 | 79.75 | - | 36.34 | - | - | - | - | - | - |
| 2026-05-08 05:08 pm | 0.0 | 79.92 | - | 36.34 | - | - | - | - | - | - |
| 2026-05-08 04:08 pm | 0.0 | 80.01 | - | 36.35 | - | - | - | - | - | - |
| 2026-05-08 03:08 pm | 0.0 | 79.95 | - | 36.36 | - | - | - | - | - | - |
| 2026-05-08 02:08 pm | 0.0 | 80.04 | - | 36.35 | - | - | - | - | - | - |
| 2026-05-08 01:08 pm | 0.0 | 79.63 | - | 36.35 | - | - | - | - | - | - |
| 2026-05-08 12:08 pm | 0.0 | 79.29 | - | 36.35 | - | - | - | - | - | - |
| 2026-05-08 11:08 am | 0.0 | 78.98 | - | 36.34 | - | - | - | - | - | - |
| 2026-05-08 10:08 am | 0.0 | 78.71 | - | 36.34 | - | - | - | - | - | - |
| 2026-05-08 09:08 am | 0.0 | 78.58 | - | 36.34 | - | - | - | - | - | - |
| 2026-05-08 05:08 am | 0.0 | 78.64 | - | 35.99 | - | - | - | - | - | - |
| 2026-05-08 04:08 am | 0.0 | 78.66 | - | 35.98 | - | - | - | - | - | - |
| 2026-05-08 03:08 am | 0.0 | 78.69 | - | 35.98 | - | - | - | - | - | - |